Location: Gipe Farm
(40.9466°N, 95.5370°W)
Time: 03:37:22
(UTC-05:00)

Daily predictions for brighter satellites

Satellite Brightness Start Highest point End
(mag) Time Altitude Azimuth Time Altitude Azimuth Time Altitude Azimuth
Cosmos 1602 Rocket 4.5 00:04:35 39° W 00:04:58 40° WNW 00:09:04 10° N
DELTA 2 DEB (DPAF) 4.2 00:05:30 71° WNW 00:05:30 71° WNW 00:09:45 10° NNW
Cosmos 1758 4.2 00:03:29 10° N 00:06:28 44° NNE 00:06:28 44° NNE
Cosmos 1980 Rocket 2.0 00:02:35 10° NNW 00:08:16 81° ENE 00:08:49 72° SE
Lacrosse 5 4.3 00:14:08 11° ENE 00:14:08 11° ENE 00:14:22 10° ENE
Spot 4 4.1 00:11:21 57° W 00:11:21 57° W 00:16:06 10° NNW
Cosmos 158 Rocket 4.0 00:12:50 70° WSW 00:13:21 77° WNW 00:18:44 10° NNE
CZ-2C R/B 3.9 00:13:35 40° E 00:14:11 41° ENE 00:19:26 10° N
ISS -0.7 00:15:06 10° NW 00:17:14 16° NNW 00:19:23 10° NNE
CZ-4B R/B 4.1 00:12:20 10° N 00:17:15 52° WNW 00:18:18 44° WSW
Cosmos 2322 Rocket 3.2 00:12:08 10° N 00:17:22 36° ENE 00:18:37 32° E
Cosmos 389 Rocket 4.3 00:15:36 10° N 00:17:29 29° N 00:17:29 29° N
Cosmos 1269 Rocket 4.2 00:20:05 57° WSW 00:20:48 64° WNW 00:26:06 10° NNE
Cosmos-2242 4.3 00:19:11 10° N 00:22:21 33° NE 00:22:21 33° NE
SME Rocket 3.5 00:24:15 81° ESE 00:24:25 82° ENE 00:28:49 10° NNW
Meteor 2-8 Rocket 4.3 00:23:34 66° SSW 00:24:31 84° W 00:30:43 10° N
Cosmos 1934 Rocket 4.1 00:20:44 10° N 00:27:03 62° E 00:27:52 57° ESE
Cosmos 1805 4.5 00:23:42 10° NNW 00:26:26 40° NW 00:26:26 40° NW
SL-24 R/B - RUBIN 2 4.5 00:30:12 61° SSW 00:31:32 89° SE 00:38:07 10° NNE
Cosmos 2082 Rocket 4.0 00:36:24 11° WSW 00:40:43 26° NW 00:45:24 10° N
Nadezhda 3 Rocket 4.5 00:39:48 45° WSW 00:41:19 54° W 00:47:34 10° N
Cosmos 1110 Rocket 4.0 00:40:08 10° NNW 00:45:10 79° NNE 00:45:10 79° NNE
Cosmos 1331 Rocket 4.0 00:40:15 10° NNW 00:45:11 71° NE 00:45:11 71° NE
CZ-2C R/B 2.6 00:43:32 10° NNE 00:49:11 81° ESE 00:49:11 81° ESE
Cosmos 2239 Rocket 4.5 00:45:57 10° NNW 00:52:04 65° W 00:52:39 62° SW
Cosmos 1758 Rocket 4.4 00:53:34 45° NW 00:53:34 45° NW 00:57:01 10° N
ARGOS Delta rocket 4.0 00:50:01 10° N 00:55:12 86° NNE 00:55:12 86° NNE
Cosmos 1821 Rocket 4.2 00:53:22 10° NNW 00:59:31 59° W 01:00:11 56° WSW
Cosmos 2098 Rocket 3.7 00:56:32 10° N 01:00:25 62° NE 01:00:25 62° NE
Cosmos 2251 Rocket 3.5 01:02:38 80° NNE 01:02:38 80° NNE 01:07:45 10° NNE
Cosmos 1953 4.1 01:00:16 10° NNW 01:02:42 26° WNW 01:02:42 26° WNW
Cosmos 1697 Rocket 4.4 01:00:26 10° NW 01:04:07 20° W 01:04:07 20° W
SL-16 R/B 2.1 01:01:58 10° NNW 01:07:40 86° NE 01:07:40 86° NE
Cosmos 1727 Rocket 3.9 01:10:01 71° SE 01:10:24 74° E 01:16:38 10° N
Cosmos 1339 Rocket 4.4 01:13:11 71° SE 01:13:36 75° E 01:19:56 10° N
USA 267 3.9 01:11:35 10° NE 01:17:52 51° NNW 01:23:17 14° WSW
ALOS 2 3.7 01:19:23 37° NW 01:19:23 37° NW 01:22:26 10° NNW
Meteor 2-5 Rocket 3.7 01:19:22 79° WSW 01:19:38 81° W 01:25:37 10° N
SeaSat 1 3.3 01:23:08 40° WNW 01:23:08 40° WNW 01:26:50 10° NW
Cosmos 1605 Rocket 3.8 01:16:03 10° NNW 01:22:08 73° W 01:22:25 71° WSW
NOSS 3-1 (C) 4.0 01:22:10 10° NW 01:29:51 78° WSW 01:31:41 58° SSE
Cosmos 2322 4.4 01:24:31 10° NNW 01:29:57 45° ENE 01:31:06 40° E
CZ-4B R/B 4.0 01:32:03 19° N 01:32:03 19° N 01:33:05 10° N
Lacrosse 5 rocket 2.4 01:26:45 10° NW 01:31:15 48° NE 01:31:15 48° NE
Cosmos 1153 Rocket 4.3 01:25:18 10° N 01:31:33 89° W 01:32:03 77° S
USA 32 4.4 01:32:23 54° WNW 01:32:23 54° WNW 01:37:19 10° N
Cosmos 1833 4.3 01:34:28 65° E 01:34:28 65° E 01:39:47 10° NNE
ATLAS CENTAUR R/B 3.4 01:34:12 10° NW 01:35:29 20° NW 01:35:29 20° NW
Cosmos 2173 Rocket 4.1 01:34:23 10° N 01:40:27 61° E 01:41:14 56° ESE
Cosmos 2219 4.4 01:44:22 30° E 01:44:22 30° E 01:48:57 10° NE
COSMOS 2428 4.1 01:39:04 10° N 01:44:16 33° ENE 01:46:53 23° ESE
Geosat 4.2 01:40:30 10° NNE 01:45:28 65° WNW 01:45:28 65° WNW
Cosmos 2360 Rocket 2.1 01:45:29 10° NNW 01:51:12 79° ENE 01:51:29 76° ESE
Cosmos 1980 Rocket 4.4 01:48:58 10° WNW 01:50:34 13° W 01:50:34 13° W
USA 234 3.1 01:50:01 51° SE 01:51:56 89° SW 01:58:30 10° NW
Lacrosse 5 2.1 01:53:18 66° NW 01:53:18 66° NW 01:58:17 10° NE
ISS -0.4 01:52:59 10° NNW 01:54:46 14° N 01:56:33 10° NE
H-2A R/B 3.3 01:52:27 10° NNE 01:55:44 50° NE 01:55:44 50° NE
Cosmos 2322 Rocket 3.3 01:56:17 10° NW 02:00:26 32° W 02:00:26 32° W
ATLAS 2AS CENTAUR R/B 4.1 01:53:50 10° NNW 02:01:25 41° NE 02:08:30 10° ESE
NOSS 3-1 (A) 4.0 01:53:55 10° NW 02:01:33 67° WSW 02:03:18 55° S
Cosmos 1459 Rocket 3.9 01:59:13 10° N 02:05:36 84° W 02:06:25 70° SSW
Meteor 1-24 Rocket 4.2 02:07:18 51° W 02:07:53 53° WNW 02:13:47 10° N
Helios 1A Rocket 4.3 02:05:55 10° NNE 02:09:02 33° ENE 02:09:02 33° ENE
Cosmos 1802 Rocket 3.8 02:07:17 10° N 02:13:37 86° W 02:14:27 69° S
Cosmos 2333 Rocket 3.9 02:12:13 10° N 02:17:12 30° NE 02:22:07 10° ESE
Cosmos 2100 Rocket 4.0 02:15:10 10° NNW 02:21:11 58° W 02:21:43 56° WSW
Cosmos 2221 3.3 02:17:56 10° NNW 02:21:07 45° NW 02:21:07 45° NW
Cosmos 2016 Rocket 3.9 02:18:05 10° N 02:24:29 84° W 02:25:37 63° S
Cosmos 2084 Rocket 4.5 02:25:35 37° NNW 02:25:35 37° NNW 02:28:51 10° NNE
Cosmos 407 Rocket 3.7 02:29:58 56° ESE 02:30:12 57° ESE 02:35:16 10° NNE
Cosmos 2061 Rocket 4.1 02:25:00 10° NNW 02:31:04 58° W 02:31:46 55° WSW
Cosmos 2297 Rocket 4.0 02:29:46 17° ESE 02:31:15 19° E 02:35:02 10° ENE
Cosmos 2219 Rocket 3.0 02:30:48 10° NNW 02:36:19 49° ENE 02:39:34 24° SE
Cosmos 1674 3.7 02:39:54 42° NNW 02:39:54 42° NNW 02:42:46 10° N
Cosmos 1356 Rocket 3.7 02:40:26 61° NNE 02:40:26 61° NNE 02:43:52 10° NNE
PSLV R/B 4.2 02:41:04 64° NE 02:41:04 64° NE 02:44:49 10° N
Cosmos 676 Rocket 4.4 02:43:27 48° SE 02:44:11 52° ESE 02:49:19 10° NNE
Cosmos 1190 Rocket 3.9 02:46:27 72° SSW 02:47:01 88° WNW 02:52:21 10° NNE
Cosmos 1992 Rocket 4.4 02:42:12 10° NNW 02:46:46 47° W 02:46:46 47° W
Cosmos 1076 Rocket 4.3 02:48:13 41° WNW 02:48:13 41° WNW 02:51:52 10° N
Cosmos 2123 Rocket 3.9 02:47:51 56° SW 02:49:10 73° W 02:55:22 10° N
SL-16 R/B 4.4 02:48:51 10° WNW 02:49:31 11° W 02:49:31 11° W
Cosmos 2237 Rocket 3.5 02:46:18 10° N 02:51:32 38° ENE 02:56:44 10° SE
Cosmos 1340 Rocket 4.3 02:54:46 27° NW 02:54:46 27° NW 02:57:30 10° NNW
Cosmos 2228 Rocket 3.1 02:52:12 10° N 02:56:42 73° E 02:57:08 66° SE
Cosmos 1300 3.0 02:53:35 10° N 02:57:08 64° NE 02:57:08 64° NE
Cosmos 1328 Rocket 3.5 02:53:44 10° N 02:58:12 80° E 02:58:27 76° SE
NPP 3.8 02:55:35 10° NNE 03:00:57 65° ESE 03:02:21 47° SSE
Cosmos 2151 3.7 03:01:28 40° ESE 03:02:01 43° E 03:06:01 10° NNE
Cosmos 1328 3.8 03:03:06 77° NE 03:03:06 77° NE 03:06:53 10° N
Cosmos 1242 Rocket 3.6 02:59:35 10° NNW 03:01:57 38° NNW 03:01:57 38° NNW
Cosmos 1726 2.6 02:59:26 10° N 03:02:32 57° NNW 03:02:32 57° NNW
Cosmos 2233 Rocket 3.9 03:00:34 10° N 03:06:56 90° E 03:09:23 40° S
VEP-3 4.4 02:47:09 10° W 03:11:08 26° S 03:14:33 10° SE
Cosmos 2227 Rocket 2.7 03:06:29 38° SSE 03:08:10 50° ESE 03:13:37 10° NE
Cosmos 1151 Rocket 3.5 03:05:18 10° N 03:09:35 56° E 03:10:40 43° SE
Lacrosse 5 rocket 4.0 03:06:30 10° WNW 03:06:53 12° WNW 03:06:53 12° WNW
Meteor 2-2 Rocket 4.2 03:10:59 10° NNW 03:16:35 67° W 03:18:00 48° SSW
Cosmos 1725 Rocket 4.4 03:11:23 10° NNW 03:17:22 46° W 03:18:50 40° SW
ERBS 2.7 03:19:35 61° NNE 03:19:35 61° NNE 03:22:30 10° NE
IRS-1D 4.5 03:14:50 10° NNE 03:19:54 42° E 03:22:28 25° SSE
Cosmos 2219 4.0 03:26:17 30° W 03:28:08 38° WNW 03:33:21 10° N
COSMOS 2428 3.3 03:23:19 10° NW 03:28:31 36° WSW 03:28:50 36° WSW
ISS -1.9 03:29:01 10° NW 03:32:01 32° NNE 03:35:01 10° E
Meteor 2-10 4.0 03:27:03 10° NNW 03:32:05 64° W 03:33:35 44° SSW
Cosmos 2360 Rocket 4.2 03:31:43 10° WNW 03:33:13 13° W 03:33:13 13° W
Meteor 1-11 4.2 03:32:53 39° SSW 03:35:09 85° W 03:40:56 10° N
Resurs 1-4 Rocket 2.5 03:30:09 10° NNE 03:35:25 58° E 03:38:07 28° S
Meteor 1-27 4.2 03:30:03 10° N 03:35:52 90° W 03:39:18 26° S
Cosmos 1464 Rocket 4.2 03:30:11 10° N 03:36:20 68° E 03:41:16 16° SSE
Lacrosse 5 4.1 03:33:25 10° WNW 03:37:03 19° NNW 03:40:42 10° NNE
Cosmos 2082 3.7 03:34:49 37° S 03:37:05 74° ESE 03:42:43 10° NNE
Cosmos 1455 3.1 03:37:00 10° N 03:40:45 46° E 03:43:00 21° SE
Aureole 2 Rocket 2.8 03:37:24 10° NNW 03:41:26 86° ENE 03:43:12 34° SSE
Cosmos 1500 Rocket 3.9 03:41:15 44° WSW 03:42:01 49° W 03:46:20 10° N
ADEOS 3.9 03:37:21 10° NNE 03:42:32 61° ESE 03:45:21 27° S
Cosmos 1140 Rocket 3.5 03:41:23 40° SW 03:43:13 71° WNW 03:48:26 10° NNE
Cosmos 1850 Rocket 4.1 03:43:05 33° S 03:45:24 71° ESE 03:50:34 10° NNE
Cosmos 1356 4.0 03:44:37 40° SE 03:45:30 53° E 03:48:57 10° NNE
NOSS 7 (E) 4.2 03:45:37 70° WSW 03:45:55 81° NW 03:49:13 10° NNE
CZ-2D R/B 2.2 03:41:28 10° NNE 03:46:42 72° ESE 03:49:29 28° S
Cosmos 614 Rocket 3.9 03:44:56 38° SSW 03:46:58 82° WNW 03:52:15 10° NNE
NOSS 0 Rocket 3.9 03:41:35 10° NNW 03:47:40 60° WSW 03:51:45 21° S
NOSS 2-1 (D) 3.2 03:48:18 51° SW 03:49:11 75° NW 03:53:24 10° NNE
NOSS 2-1 (C) 3.2 03:48:28 51° SW 03:49:20 77° NW 03:53:33 10° NNE
Cosmos 1741 Rocket 4.1 03:47:52 32° S 03:50:24 76° ESE 03:55:45 10° NNE
ATLAS 2AS CENTAUR R/B 3.1 03:45:00 10° NW 03:52:40 53° WSW 03:59:39 10° S
Cosmos 1703 3.2 03:53:52 47° SW 03:54:48 68° W 03:58:44 10° N
Cosmos 1805 Rocket 3.8 03:53:23 27° S 03:55:42 67° E 04:00:07 10° NNE
ADEOS Rocket 3.5 03:49:28 10° NNE 03:56:54 81° WNW 04:02:13 23° SSW
Cosmos 2058 3.3 03:57:56 38° WSW 03:58:53 46° W 04:02:52 10° N
SL-16 R/B 2.5 03:54:50 18° S 03:59:35 72° WSW 04:05:47 10° NNW
NOSS 3-3 (C) 4.5 03:56:17 25° WSW 03:59:47 51° NW 04:06:19 10° NNE
Cosmos 2333 Rocket 2.6 03:56:14 10° NW 04:01:34 41° WSW 04:04:02 27° SSW
SL-8 R/B 4.5 03:58:24 18° W 04:01:39 47° NNW 04:06:18 10° NE
SL-08 R/B 4.1 04:00:46 30° WSW 04:01:51 34° W 04:06:21 10° NNW
USA 161 4.0 04:02:45 10° E 04:03:41 12° ENE 04:04:36 10° NE
Cosmos 1570 Rocket 4.0 03:58:33 10° NNW 04:03:56 90° ENE 04:09:16 10° SSE
Okean O Rocket 4.4 04:02:18 10° ENE 04:04:01 12° E 04:05:44 10° ESE
ATLAS 3B CENTAUR R/B 3.9 03:51:56 10° WSW 04:05:30 36° SSW 04:11:08 10° SE
UNK 3.8 04:05:26 27° S 04:07:46 57° W 04:12:20 10° NNW
GPS 2-04 Rocket1 3.3 04:08:24 34° SSW 04:08:58 36° S 04:12:51 10° ESE
Cosmos 1626 2.7 04:09:54 34° WSW 04:10:49 41° WNW 04:14:23 10° N
ARIANE 5 R/B 2.5 04:05:58 10° N 04:11:04 72° WNW 04:14:02 25° SSW
NOSS 2-1 (E) 3.8 04:10:36 30° WSW 04:12:12 49° NW 04:16:26 10° NNE
UNKNOWN OBJECT B 3.1 04:09:46 10° NNE 04:13:47 66° E 04:16:24 20° S
Cosmos 2297 Rocket 2.4 04:11:35 26° SW 04:14:44 60° WNW 04:20:21 10° NNE
Cosmos 1900 4.3 04:12:15 28° SW 04:14:53 77° WNW 04:19:54 10° NNE
Cosmos 1980 4.1 04:10:50 10° NW 04:16:08 41° WSW 04:19:57 18° SSW
Cosmos 2219 Rocket 3.3 04:15:31 10° NW 04:19:54 23° W 04:21:14 21° WSW
CZ-3A R/B 3.8 04:20:47 10° NNW 04:23:27 29° NE 04:30:17 10° ESE
Cosmos 1633 Rocket 3.1 04:22:01 16° S 04:25:30 78° E 04:29:52 10° N
Lacrosse 4 Rocket 2.1 04:23:36 17° S 04:26:29 48° ESE 04:30:32 10° NE
Sich 1 3.0 04:26:35 18° SSW 04:29:47 79° W 04:34:11 10° N
USA 102 3.5 04:28:18 10° NNE 04:31:16 65° WNW 04:32:50 28° SW
Cosmos 2034 Rocket 4.1 04:26:55 10° NNW 04:33:08 59° W 04:39:21 10° S
SL-16 R/B 2.1 04:29:25 10° NNW 04:35:07 76° WSW 04:40:45 10° SSE
Cosmos 2237 Rocket 3.0 04:30:36 10° NW 04:35:27 31° WSW 04:39:24 14° SSW
CZ-2D R/B 3.3 04:32:39 10° N 04:36:42 79° WNW 04:40:01 15° SSW
MOS 1 Rocket 3.5 04:34:09 10° N 04:39:17 84° WNW 04:44:29 11° SSW
Tsikada Rocket 4.2 04:42:17 12° SSW 04:48:07 60° W 04:54:28 10° N
DELTA 2 R/B (1) 3.7 04:43:51 15° WSW 04:48:23 63° SSE 04:53:52 10° E
ATLAS 5 CENTAUR R/B 4.1 04:46:43 10° SSE 04:49:45 17° ESE 04:52:56 10° ENE
Cosmos 2227 Rocket 3.6 04:48:19 12° WSW 04:52:28 25° NW 04:57:07 10° N
Cosmos 2242 Rocket 3.6 04:50:12 10° N 04:54:41 78° W 04:59:11 10° S
MOS 1-B 4.4 04:50:53 10° NNE 04:56:42 88° ESE 05:02:29 10° SSW
Cosmos 1400 Rocket 3.8 04:55:16 10° SSE 04:58:59 45° E 05:02:46 10° NNE
Cosmos 468 Rocket 4.0 04:58:36 10° NNW 05:03:44 62° WSW 05:08:48 10° S
Cosmos 332 Rocket 3.8 04:58:59 10° NNW 05:03:50 88° WSW 05:08:42 10° SSE
CZ-4B R/B 3.5 05:04:00 10° NNE 05:08:26 65° ESE 05:12:39 10° S
ISS -3.1 05:05:33 10° WNW 05:08:30 32° SW 05:11:27 10° SSE
Cosmos 1892 3.9 05:09:19 10° SSE 05:12:55 44° E 05:16:34 10° NNE
Resurs 1-4 Rocket 3.8 05:11:08 10° NNW 05:14:46 19° WNW 05:18:24 10° WSW
Cosmos 1455 4.3 05:14:46 10° WNW 05:15:58 11° W 05:17:10 10° WSW
Cosmos 2263 Rocket 3.8 05:12:07 10° SSE 05:17:03 33° ESE 05:21:59 10° NE
Cosmos 1862 Rocket 3.6 05:16:36 10° NNW 05:20:53 62° W 05:25:07 10° S
Cosmos 1814 Rocket 4.2 05:19:35 10° NNW 05:24:49 57° WSW 05:30:03 10° S
In-Cosmos 22 Rocket 4.1 05:20:20 10° SSW 05:25:40 75° W 05:31:00 10° N
Cosmos 1933 Rocket 3.9 05:22:05 10° SSW 05:26:25 50° W 05:30:46 10° N
Cosmos 2285 Rocket 4.2 05:20:22 10° NNW 05:26:42 81° ENE 05:33:00 10° SSE
ADEOS II 2.1 05:21:52 10° NNE 05:27:09 82° WNW 05:32:24 10° SSW
CZ-3 R/B 3.7 05:32:29 10° W 06:01:06 43° SSW 06:08:48 10° SE
